AirNav   Air Wisconsin Up To $57,000 Bonus
 
 1803 users online  

MU66 Winfield Manor Heliport
Winfield, Missouri, USA

GOING TO WINFIELD?


FAA INFORMATION EFFECTIVE 08 SEPTEMBER 2022

Location

FAA Identifier: MU66
Lat/Long: 39-01-47.4300N 090-49-23.7500W
39-01.790500N 090-49.395833W
39.0298417,-90.8232639
(estimated)
Elevation: 732 ft. / 223 m (estimated)
Variation: 01E (2000)
From city: 3 miles SE of WINFIELD, MO
Time zone: UTC -5 (UTC -6 during Standard Time)
Zip code: 63389

Heliport Operations

Heliport use: Private use. Permission required prior to landing
Activation date: 10/1986
Control tower: no
ARTCC: KANSAS CITY CENTER
FSS: SAINT LOUIS FLIGHT SERVICE STATION
NOTAMs facility: FDC (NOTAM-D service not available)
Attendance: UNATNDD
Wind indicator: yes
Segmented circle: no
Lights: FOR FLOOD LGTS CALL 314-553-2225.
Beacon: white-green-yellow (heliport)
FOR ROTG BCN CALL 314-731-4517.

Heliport Communications

WX ASOS at SET (19 nm E): 118.075 (636-250-4590)

Nearby radio navigation aids

VOR radial/distance  VOR name  Freq  Var
STLr302/18.9ST LOUIS VORTAC117.4001E
FTZr014/21.3FORISTELL VORTAC110.8005E

 
NDB name  Hdg/Dist  Freq  Var  ID
CIVIC MEMORIAL284/36.726301WCVM -.-. ...- --

Heliport Services

Runway Information

Helipad H1

Dimensions: 50 x 50 ft. / 15 x 15 m
Surface: concrete
Runway edge lights: FLD
Latitude: 39-01.790500N
Longitude: 090-49.395833W
Elevation: 732.0 ft.
Traffic pattern: leftleft

Heliport Ownership and Management from official FAA records

Ownership: Privately-owned
Owner: EMERSON ELECTRIC CO.
8000 W. FLORISSANT
ST LOUIS, MO 63136
Phone (314) 553-2225
Manager: MOLLY LINDSAY
RR 1, BOX 128
WINFIELD, MO 63389
Phone (314) 553-3900

Additional Remarks

A52-H1 TREES 80' WEST AND WIRES 400' NORTH.
FOR CD CTC ST LOUIS APCH AT 314-890-1018.

Instrument Procedures

There are no published instrument procedures at MU66.

Some nearby airports with instrument procedures:

KSET - St Charles County Smartt Airport (19 nm E)
1H0 - Creve Coeur Airport (23 nm SE)
KSUS - Spirit of St Louis Airport (23 nm S)
KSTL - St Louis Lambert International Airport (27 nm SE)
H19 - Bowling Green Municipal Airport (28 nm NW)
 
Loc | Ops | Rwys | IFR | FBO | Links
Com | Nav | Svcs | Stats | Notes
Area around MU66 (Winfield Manor Heliport)
 
Road maps at: MapQuest Bing Google
 
Aerial photo
No photo
 
Sectional chart

 
Airport distance calculator
Flying to Winfield Manor Heliport? Find the distance to fly.

From to MU66

Sunrise and sunset
Times for 04-Oct-2022
 Local
(UTC-5)
 Zulu
(UTC)
Morning civil twilight06:3611:36
Sunrise07:0312:03
Sunset18:4123:41
Evening civil twilight19:0800:08

Current date and time
Zulu (UTC)  04-Oct-2022 16:52:34
Local (UTC-5)  04-Oct-2022 11:52:34
 
METAR
KSET 
19nm E 
041554Z AUTO 06004KT 10SM CLR 19/07 A3025 RMK AO2 SLP242 T01890067
KSUS 
24nm S 
041554Z 02003KT 10SM CLR 18/08 A3025 RMK AO2 SLP242 T01830083
KSTL 
27nm SE 
041551Z VRB04KT 10SM FEW250 19/06 A3026 RMK AO2 SLP242 T01940056
KFYG 
28nm S 
041635Z AUTO 14005KT 10SM CLR 20/05 A3024 RMK AO2
KPPQ 
36nm N 
041635Z AUTO 00000KT 10SM CLR 19/03 A3026 RMK AO2 T01930029
KALN 
38nm E 
041550Z 00000KT 10SM CLR 18/05 A3026
TAF
KSUS 
24nm S 
041306Z 0413/0512 00000KT 1/2SM FG BKN002 FM041400 10004KT P6SM FEW250 FM050800 00000KT 1SM BR FEW250
KSTL 
27nm SE 
041504Z 0415/0518 11005KT P6SM FEW250
NOTAMs
Click for the latest NOTAMs
NOTAMs are issued by the DoD/FAA and will open in a separate window not controlled by AirNav.

 

 
 

Would you like to see your business listed on this page?

 If your business provides an interesting product or service to pilots, flight crews, aircraft, or users of the Winfield Manor Heliport, you should consider listing it here.  To start the listing process, click on the button below
 
Add a business
 

Other Pages about Winfield Manor Heliport

Update a link
 
Copyright © AirNav, LLC. All rights reserved. Privacy Policy  Contact